466  
ASUS46 KSGX 252011  
RWRSGX  
 
SAN DIEGO HOURLY WEATHER ROUNDUP  
NATIONAL WEATHER SERVICE SAN DIEGO CA  
100 PM PDT SUN AUG 25 2019  
 
NOTE: "FAIR" INDICATES FEW OR NO CLOUDS BELOW 12,000 FEET WITH NO  
SIGNIFICANT WEATHER AND/OR S TO VISIBILITY
.  
 
CAZ042-043-060-061-PZZ750-775-252100-  
 
GREATER SAN DIEGO AREA  
 
CITY SKY/WX TMP DP RH WIND PRES REMARKS
 
SAN DIEGO AP MOSUNNY 82 67 60 NW9 29.95F  
NATIONAL CITY N/A 87 68 52 CALM 29.94F  
BROWN FIELD SUNNY 89 53 29 W12G18 29.95S  
MIRAMAR MCAS SUNNY 94 53 25 W10G16 29.94F  
MONTGOMERY FLD SUNNY 91 45 20 SW9 29.95F  
GILLESPIE FLD MOSUNNY 95 48 20 SW12 29.93F  
 

 
 
NORTH SAN DIEGO COUNTY  
 
CITY SKY/WX TMP DP RH WIND PRES REMARKS
 
CAMP PENDLETON SUNNY 89 57 33 SW10 29.92F  
OCEANSIDE AP SUNNY 83 65 54 W10 29.93S  
VISTA N/A 90 63 40 SW6 29.91S  
CARLSBAD SUNNY 80 66 62 VRB6 29.94F  
DEL MAR N/A 79 71 77 W3 29.95F  
LA JOLLA SCRIP N/A 73 68 85 SW3 29.95F  
FALLBROOK FAIR 93 50 22 SW8 29.96S  
ESCONDIDO N/A 96 61 31 S3 29.91F HX 96  
SAN MARCOS N/A 88 53 29 S3 29.96F  
POWAY N/A 94 59 30 W5 29.93F  
 

 
 
EAST SAN DIEGO COUNTY  
 
CITY SKY/WX TMP DP RH WIND PRES REMARKS
 
RAMONA SUNNY 95 49 20 NW8 29.98F  
SANTEE LAKES N/A 94 51 22 S7 29.89F  
LA MESA N/A 93 49 21 CALM 29.88F  
JAMUL N/A 95 50 21 CALM 29.92F  
DESCANSO N N/A 87 53 30 NW3 29.85F  
MT. LAGUNA OBS N/A 85 62 45 E17 29.83F  
CAMPO N/A 94 46 19 SW16G23 29.99F  
 

 
 
ORANGE COUNTY AND THE LOS ANGELES BASIN  
 
CITY SKY/WX TMP DP RH WIND PRES REMARKS
 
JOHN WAYNE AP MOSUNNY 88 62 41 SW8 29.94F  
LAGUNA BEACH N/A 82 70 68 N2 29.94F  
LAKE FOREST FR N/A 92 59 33 W3 29.81F  
HUNTINGTON BCH N/A 78 70 75 W12 29.95F  
LOS ALAMITOS SUNNY 86 54 33 SW8 29.94F  
FULLERTON SUNNY 91 61 36 VRB3 29.93F  
LONG BEACH SUNNY 88 62 41 VRB6 29.94F  
L.A. AP MOSUNNY 78 65 63 W12 29.96F  
L.A. DOWNTOWN SUNNY 86 64 47 VRB7 29.94F  
 

 
 
THE INLAND EMPIRE  
 
CITY SKY/WX TMP DP RH WIND PRES REMARKS
 
CORONA SUNNY 93 63 36 W9 29.94F  
CHINO MOSUNNY 95 51 22 W10 29.95F  
ONTARIO MOSUNNY 94 56 27 W9 29.95F  
SAN BERNARDINO SUNNY 97 54 23 W8 29.96  
RIVERSIDE AP SUNNY 96 60 30 VRB6 29.94F HX 96  
MORENO VALLEY N/A 95 64 35 W3 28.09F HX 97  
MARCH ARB SUNNY 95 57 28 NW9 29.97F  
HORSETHIEF CYN N/A 93 55 26 NE7 29.90F  
PERRIS N/A 95 62 33 W5 29.98F HX 95  
HEMET EAST N/A 95 58 28 W2 29.94F  
FRENCH VALLEY FAIR 95 54 24 S9 29.97F  
TEMECULA N/A 96 51 22 SW7 29.93F  
 

 
 
SAN BERNARDINO AND RIVERSIDE COUNTY MOUNTAINS  
 
CITY SKY/WX TMP DP RH WIND PRES REMARKS
 
BIG BEAR AP SUNNY 77 37 24 NE7 30.33F  
ANGELUS OAKS N/A 80 58 45 CALM 29.83F  
 

 
 
SOUTHERN DESERT INCLUDING THE COACHELLA VALLEY  
 
CITY SKY/WX TMP DP RH WIND PRES REMARKS
 
PALM SPRINGS SUNNY 100 70 37 E8 29.91F HX 107  
THOUSAND PALMS N/A 96 74 48 SE5 29.87F HX 107  
PALM DESERT N/A 98 77 51 CALM 28.28S HX 113  
THERMAL SUNNY 99 73 43 VRB6 29.86F HX 109  
BORREGO AP FAIR 97 72 44 VRB5G13 29.90F HX 105  
BLYTHE SUNNY 98 71 41 S12 29.90F HX 106  
IMPERIAL AP SUNNY 97 71 42 W7 29.87F HX 104  
EL CENTRO NAS SUNNY 97 68 38 MISG 29.89F HX 102  
YUMA AZ SUNNY 97 72 44 VRB7 29.89F HX 105  
MEXICALI MOSUNNY 97 70 41 S2 29.90F HX 103  
 

 
 
UPPER DESERT  
 
CITY SKY/WX TMP DP RH WIND PRES REMARKS
 
VICTORVILLE AP SUNNY N/A N/A N/A CALM 30.05F  
HESPERIA N/A 98 43 15 E1 29.88F  
APPLE VALLEY N/A 100 39 12 SE3 29.91F HX 95  
PALMDALE SUNNY 98 39 13 W9G21 30.02F  
LANCASTER SUNNY 101 45 15 W10G21 30.00F HX 97  
EDWARDS AFB SUNNY 99 42 13 NW7 29.97F HX 95  
DAGGETT SUNNY 102 34 9 MISG 29.96F HX 96  
29 PALMS N SUNNY 99 48 17 E8 30.04F HX 95  
NEEDLES SUNNY 103 61 25 SW8 29.90F HX 104  
 

 
 
REGIONAL REPORTS  
 
CITY SKY/WX TMP DP RH WIND PRES REMARKS
 
SANTA BARBARA SUNNY 70 61 73 SW8 29.97F  
SANDBERG N/A N/A N/A N/A MISG 30.20F  
LAS VEGAS NV MOSUNNY 105 37 9 NE9 29.93F HX 99  
PHOENIX AZ MOSUNNY 97 68 38 W12 29.92F HX 102  
TIJUANA MOSUNNY 90 52 27 W10 29.97F  
ENSENADA NW N/A 85 32 15 CALM 29.90S  
 

 
 
OFFSHORE ISLANDS  
 
CITY SKY/WX TMP DP RH WIND PRES REMARKS
 
CATALINA ARPT SUNNY 82 61 48 W7 30.03S  
SAN CLEMENTE I MOSUNNY 74 65 73 NW9 29.99F  
SAN NICOLAS IS SUNNY N/A N/A N/A E6 29.98F  
 

 
 
MARINE AND OFFSHORE BUOY REPORTS  
 
STATION/POSITION SKY/WX TEMP WIND PRES VSBY SWELL
 
AIR SEA DIR/SP/G HT/PER/DIR  
(F) (DEG/KT/KT) (MB) (MI) (FT/S/D)  
TANNER BANKS 63 64 330/ 8/ 10 1015.4F 5/210/14  
S CLEMENTE BASIN 68 69 310/ 8/ 10 1014.5F 3/160/11  
SAN NICOLAS IS. 65 N/A 3/210/14  
SO. S. ROSA ISLA 61 300/ 10/ 14 1016.2  
W. S. BARBARA CH N/A  
M. S. BARBARA CH 62 66 250/ 8/ 10 1015.8F 2/350/11  
S. MONICA BASIN 67 290/ 8/ 10 1015.2  
S PEDRO CHANNEL 70 N/A 3/170/11  
OCEANSIDE OFFSHR 74 N/A 2/200/14  
TORREY PINES OTR 73 N/A 2/230/14  
SAN DIEGO BAY 72 1013.6F  
IMPERIAL BEACH 71 N/A 2/220/11  
POINT LOMA SOUTH 73 N/A 3/170/11  
 

 
 
 
 
CLICK HERE TO GO TO PREVIOUS BULLETINS.

The Nexlab CA Page Main Text Page